{"data":{"norad_id":56725,"intl_designator":"2023-068R","name":"ONEWEB-0721","alt_names":[],"object_type":"PAYLOAD","status":"ACTIVE","operator":null,"country":"UK","launch_date":"2023-05-20","launch_site_code":"AFWTR","launch_vehicle":null,"mission":null,"orbit_class":"UNKNOWN","rcs_meters":null,"size_class":null,"mass_kg":null,"dimensions":null,"purposes":["comms"],"wikipedia_slug":null,"has_3d_model":false,"image_url":null,"decayed_at":null,"tle_current":{"epoch":"2026-05-24T21:54:01.384992Z","epoch_age_seconds":82376,"freshness":"FRESH","line1":"1 56725U 23068R   26144.91251603  .00000054  00000+0  94237-4 0  9995","line2":"2 56725  86.6757  92.9440 0001978  80.8494 279.2863 13.22467537154863","mean_motion":13.22467537,"eccentricity":0.0001978,"inclination_deg":86.6757,"raan_deg":92.944,"arg_perigee_deg":80.8494,"mean_anomaly_deg":279.2863,"bstar":9.4237e-5,"rev_number":15486,"period_min":108.88736091523,"perigee_km":1173.815493618,"apogee_km":1176.8036370793,"semimajor_km":7553.4465653487,"source":"CELESTRAK","updated_at":"2026-05-25T13:38:22.747457Z"}}}